GFSFLT1_prec_cthk_144.txt.gz
RH
30 24 18 17 17 16 16 13 12 13 15 13 15 14 21 40 68 56 49 42 38 39 41 39 41 43 44 39 36 39 42 45
27 24 22 22 22 22 23 21 21 23 20 16 20 22 18 21 39 64 62 50 43 37 41 42 41 41 43 42 38 40 44 45
27 25 26 29 29 28 27 28 31 29 30 29 26 25 21 19 16 42 81 61 50 39 36 42 41 40 43 42 38 37 43 44
27 29 30 31 31 31 32 33 33 37 40 36 31 30 31 22 15 16 43 88 57 51 36 41 43 41 40 40 39 36 37 44
30 32 33 33 36 37 37 38 41 46 53 50 49 44 38 32 25 14 21 47 86 42 39 39 44 43 41 39 40 37 36 38
34 36 37 39 41 42 43 45 53 58 52 51 53 52 49 45 43 23 13 27 76 70 58 37 45 46 43 39 39 39 35 36
34 37 39 41 46 48 51 55 62 61 54 52 53 52 51 57 45 32 17 14 59 98 83 46 52 56 52 41 37 37 36 37
35 38 42 47 54 57 58 64 64 58 58 59 60 58 54 58 54 37 29 26 27 69 82 78 63 60 59 49 41 36 36 36
36 40 45 51 60 64 69 74 68 64 63 53 51 54 62 58 54 40 29 57 26 45 93 94 79 72 69 57 49 40 36 38
35 41 46 54 66 75 79 75 75 68 69 65 62 62 62 67 54 48 34 82 50 51 59 98 98 80 77 66 58 47 41 42
36 38 43 54 74 80 84 81 74 68 75 73 66 66 59 58 59 52 40 61 97 63 61 93 93 95 83 68 69 59 50 47
38 37 43 51 74 84 85 83 73 71 77 79 71 76 65 58 50 42 48 68 95 65 54 75 92 87 83 85 78 68 57 54
40 39 42 48 67 83 88 82 72 75 82 90 76 66 67 58 47 41 60 85 78 70 62 65 84 87 83 80 84 72 61 61
40 40 41 46 61 78 87 82 72 76 81 93 98 81 72 74 73 92 84 86 86 70 67 79 76 75 81 83 87 77 74 73
39 41 42 46 58 68 83 82 74 70 75 84 92 97 97 98 94 94 91 81 62 59 64 72 77 77 88 82 84 82 80 71
38 41 43 45 49 60 74 82 77 68 71 77 82 86 90 91 91 93 97 92 73 97 83 87 93 95 88 85 77 79 83 79
38 41 45 47 49 53 63 80 79 75 66 73 75 77 75 78 80 89 88 89 87 85 98 97 99 99 95 86 78 80 77 76
38 41 46 48 50 52 56 68 83 76 75 70 63 66 70 69 68 67 74 77 78 79 81 90 93 91 91 91 88 83 77 77
39 42 46 51 52 55 56 64 67 84 82 79 71 66 67 63 62 58 57 67 66 66 69 74 82 82 79 83 83 78 78 86

GFSFLT1_prec_cthk_147.txt.gz
RH
28 25 19 16 14 14 14 14 13 13 13 12 12 10 9 8 9 22 35 50 73 51 44 43 42 40 41 43 42 39 36 44
22 18 16 14 14 15 15 16 17 17 16 16 15 15 13 12 11 9 23 34 55 73 45 40 47 39 39 42 41 42 40 42
22 22 21 19 18 19 19 20 21 21 21 20 21 21 20 18 15 14 11 23 37 62 66 43 45 46 38 43 42 43 42 42
27 24 22 20 20 21 22 24 27 28 29 28 31 32 30 26 24 19 20 15 20 44 71 73 53 54 43 40 41 40 41 43
28 25 20 18 21 23 26 27 31 34 38 39 43 41 40 41 34 29 26 21 16 20 54 82 82 61 52 41 44 39 41 42
28 25 22 23 24 26 30 32 38 43 48 53 53 49 47 44 44 38 29 32 22 17 16 60 91 80 57 50 47 47 40 40
30 26 23 21 22 27 33 37 49 55 57 66 60 51 48 44 41 41 39 37 37 28 21 26 47 92 78 55 47 50 44 42
27 25 22 22 22 29 38 45 60 64 70 66 55 54 52 47 41 42 42 43 44 42 33 26 30 53 95 70 51 53 52 47
30 26 26 25 25 32 44 56 64 70 76 60 61 68 54 54 54 49 50 45 51 56 48 45 41 36 69 74 65 62 53 54
28 27 28 26 25 30 47 61 69 79 80 64 70 73 73 74 66 70 61 53 57 63 53 55 54 37 76 91 84 69 61 54
26 26 28 27 27 33 47 65 72 86 83 73 77 84 87 84 70 79 84 66 70 66 57 40 66 59 51 93 99 73 73 62
25 27 29 28 30 36 43 59 73 79 88 78 88 94 92 86 78 59 69 70 62 52 46 38 69 95 66 76 97 98 85 68
26 28 30 31 32 35 41 51 68 79 83 78 74 92 99 91 79 66 60 54 55 41 42 37 74 84 74 58 92 84 93 77
25 27 28 31 33 35 38 47 61 75 82 78 75 85 95 96 96 87 71 63 56 58 65 61 74 88 59 64 82 99 92 76
28 27 26 30 33 36 38 45 53 71 79 80 71 77 88 96 99 97 94 94 81 83 85 80 99 89 89 87 84 98 92 75
26 27 27 30 33 36 39 43 51 59 78 79 74 65 75 84 95 93 99 99 97 98 91 95 87 98 81 82 96 96 92 90
28 28 29 31 35 36 39 42 48 56 66 82 75 65 71 74 77 82 85 90 95 97 95 90 91 87 85 86 87 89 93 90
28 30 31 33 36 38 39 43 47 55 59 70 80 70 68 75 66 69 73 78 83 90 90 82 79 92 85 81 89 95 96 82
29 31 31 32 36 39 41 43 47 53 58 62 74 84 77 71 73 67 64 63 69 77 79 81 71 79 85 78 80 84 83 90

GFSFLT1_prec_cthk_150.txt.gz
RH
23 22 20 17 17 17 17 15 14 13 13 13 12 10 10 8 9 11 11 8 15 25 48 65 62 53 46 46 49 49 56 55
23 21 19 19 19 17 15 15 14 14 14 14 14 13 12 12 11 11 13 13 12 16 22 48 65 65 50 50 53 52 53 60
24 23 22 22 20 19 17 16 17 18 18 18 18 18 17 18 17 16 16 17 16 15 18 24 56 74 69 53 51 53 54 61
26 26 25 24 23 20 18 17 18 19 20 21 23 24 26 28 27 23 22 23 23 21 19 20 33 65 88 62 58 53 53 56
29 29 26 26 24 22 19 17 20 22 24 26 28 33 38 41 38 35 31 31 29 27 23 24 23 46 75 86 57 55 55 55
31 32 31 29 24 20 17 18 22 25 28 35 41 47 52 45 38 36 34 32 30 33 31 25 25 31 51 77 84 67 59 58
34 35 33 30 25 20 15 18 24 29 34 41 51 56 49 43 45 43 35 32 29 32 36 34 27 24 32 74 82 79 59 58
35 35 35 30 23 17 16 20 25 32 38 47 58 69 51 52 58 56 48 42 39 34 41 34 34 28 22 44 77 98 81 68
39 39 36 30 22 19 20 22 25 31 40 50 59 72 68 71 78 76 62 56 53 46 41 40 36 36 24 24 55 74 96 78
42 40 36 28 22 21 23 24 25 31 40 51 61 74 73 71 91 87 72 63 59 64 48 42 46 51 37 32 37 48 67 96
44 40 35 27 26 24 25 24 25 31 38 50 62 75 78 73 94 97 81 69 76 79 71 56 59 57 50 39 36 36 40 88
44 40 30 26 26 25 23 25 27 30 35 46 60 71 80 79 95 97 98 75 65 76 78 69 59 57 47 39 35 44 44 69
45 36 28 26 27 25 24 28 30 31 33 44 58 67 82 71 92 96 98 97 73 70 69 60 51 52 45 44 41 45 43 57
42 36 29 27 28 27 28 31 31 33 34 39 52 64 73 74 70 90 95 95 91 90 78 61 54 53 47 43 37 54 55 52
40 32 27 26 29 30 30 31 32 34 36 40 45 62 65 76 75 76 88 96 92 97 95 81 67 69 56 44 39 67 56 59
33 29 27 28 32 29 29 31 33 34 37 41 45 49 66 69 76 79 78 92 94 93 94 98 90 88 74 62 62 69 71 63
31 29 32 32 29 29 29 32 34 35 39 41 45 46 57 68 72 78 80 76 83 90 94 96 99 98 96 89 78 77 70 65
32 32 30 30 31 31 32 33 35 38 39 40 44 45 49 65 74 78 82 81 75 78 89 86 96 90 98 99 98 85 76 73
34 35 31 31 31 33 35 35 36 39 39 41 45 47 49 54 70 80 78 84 82 83 85 88 93 86 98 99 98 99 90 93

GFSFLT1_prec_cthk_153.txt.gz
RH
24 22 20 18 17 16 15 14 13 12 11 10 11 11 12 13 13 13 13 12 13 11 10 10 17 40 61 73 70 63 60 57
24 22 20 20 18 17 17 17 16 14 13 11 11 11 12 13 14 14 15 16 17 18 14 13 11 17 38 64 74 74 63 63
24 23 22 21 21 21 20 18 17 17 16 16 15 14 13 15 17 19 21 20 20 21 21 16 16 14 21 39 65 77 71 64
26 25 24 23 23 23 23 21 19 18 17 17 16 15 15 17 21 22 27 28 28 27 24 21 19 19 17 28 45 76 79 68
28 27 26 25 25 25 24 23 20 19 19 19 18 18 18 21 25 30 31 31 32 32 30 27 23 23 22 21 33 53 83 77
29 30 29 28 27 26 26 25 22 20 19 19 19 19 21 23 29 37 42 35 39 39 33 31 30 26 28 26 26 36 74 87
31 31 30 30 29 28 26 26 22 19 19 18 18 20 24 26 32 43 49 38 42 49 47 41 33 33 31 31 29 32 40 96
35 34 33 33 32 30 29 27 23 18 17 16 19 22 28 32 37 52 54 47 55 61 55 46 43 40 40 37 36 33 35 51
39 37 37 37 35 32 30 26 20 18 17 16 20 25 28 34 42 57 59 55 72 68 55 47 48 51 47 43 40 38 40 47
44 41 39 39 39 33 29 24 20 19 18 19 21 23 28 34 45 62 66 66 81 84 74 57 67 67 59 45 44 43 38 38
46 44 44 44 39 34 29 21 21 21 21 23 22 22 29 35 46 58 66 74 84 90 84 68 85 79 65 53 51 48 51 34
50 50 48 44 39 34 25 23 22 22 23 22 21 24 27 36 45 55 74 68 84 95 88 71 80 94 77 67 61 60 57 42
55 51 47 43 37 27 25 24 23 25 24 22 24 27 28 31 43 53 70 75 77 98 99 86 77 81 86 73 74 67 57 47
55 54 48 42 33 29 25 26 24 25 25 23 25 27 27 30 38 50 59 78 80 89 98 98 93 82 72 74 68 63 56 45
56 50 48 42 33 28 25 25 25 26 26 25 26 27 29 30 34 47 56 71 85 79 96 95 97 97 77 68 65 64 56 47
58 54 49 39 29 25 25 25 27 27 29 27 27 27 30 32 35 43 54 64 80 77 82 98 99 99 94 81 71 73 63 54
62 56 48 33 28 27 26 28 29 29 30 30 29 30 31 34 36 39 50 59 75 85 77 97 98 95 95 89 74 76 58 57
66 61 43 34 33 30 31 34 33 33 34 34 32 34 34 35 36 40 44 53 70 81 77 86 98 96 98 93 88 82 68 57
64 51 41 34 32 36 39 37 36 36 38 37 36 38 39 37 37 41 43 50 62 83 87 88 96 96 97 99 98 95 84 76

GFSFLT1_prec_cthk_156.txt.gz
RH
28 26 23 21 18 18 18 17 15 14 14 13 12 10 10 12 13 14 16 16 16 15 14 14 13 13 11 11 25 45 60 69
23 22 21 21 19 19 18 17 17 17 16 14 14 11 12 14 15 15 17 17 18 17 16 16 16 16 16 14 16 30 49 59
23 23 23 22 21 20 19 19 19 19 18 16 16 14 13 14 15 16 17 19 21 21 21 18 18 18 19 20 17 22 35 57
25 24 24 22 21 21 21 20 20 19 19 18 17 14 13 13 15 16 18 19 22 26 26 26 27 24 23 26 25 21 28 39
27 25 24 23 23 23 23 23 21 21 20 19 19 16 15 15 16 18 20 21 22 28 34 37 36 37 31 28 30 26 27 33
28 26 25 26 26 26 25 24 23 22 20 20 19 16 16 16 17 17 20 22 26 33 42 45 43 44 44 36 29 32 28 28
30 28 29 29 28 28 27 25 24 23 21 21 18 16 17 17 18 19 19 22 28 37 48 52 48 46 48 45 41 36 34 30
33 35 35 33 32 31 30 29 27 25 23 22 18 18 18 18 19 19 21 25 28 36 48 53 52 59 59 51 45 41 38 36
38 39 39 39 37 35 34 32 30 27 25 21 18 19 19 19 20 20 25 29 30 39 55 56 57 63 66 62 54 49 44 38
44 44 44 44 41 38 37 35 32 27 23 19 19 20 20 21 20 21 25 29 32 39 57 57 59 73 73 62 57 60 62 45
50 49 51 48 45 43 40 37 32 26 22 21 21 20 22 23 22 22 24 27 32 37 50 63 60 78 80 65 65 78 78 57
55 57 55 52 50 45 41 37 32 26 23 23 22 22 23 23 23 24 25 26 34 40 46 68 71 85 86 76 80 89 88 65
64 63 60 56 50 45 42 40 34 26 25 24 23 24 24 24 23 25 26 27 33 41 47 61 78 85 90 89 87 93 93 77
73 70 64 59 53 49 47 41 32 28 26 24 25 24 25 26 25 26 28 29 32 38 47 60 78 85 93 98 90 87 89 85
75 71 67 60 56 53 49 37 32 29 28 27 25 26 28 28 29 29 29 32 34 36 45 57 75 74 92 98 98 80 81 85
78 74 67 63 61 56 51 40 35 31 30 28 28 31 30 30 32 31 31 33 35 38 43 54 69 76 91 97 98 87 74 69
81 75 71 64 60 57 48 41 36 34 32 32 33 33 33 35 35 34 33 34 35 39 43 51 61 83 81 97 98 98 91 69
84 78 70 64 59 53 45 37 35 35 37 37 36 37 38 39 39 37 36 35 38 41 44 49 58 76 85 94 98 98 99 81
81 71 65 60 53 42 37 38 40 40 38 39 40 41 41 42 42 40 40 40 41 44 45 50 56 72 85 92 97 98 98 97

GFSFLT1_prec_cthk_162.txt.gz
RH
35 33 31 28 28 26 25 22 21 20 19 18 17 16 15 15 15 15 15 13 13 13 13 13 13 14 14 14 14 12 13 16
35 33 29 27 27 26 21 21 21 20 20 19 18 17 16 15 15 15 16 16 14 14 16 16 16 17 17 17 18 17 14 17
33 32 28 27 27 24 22 22 22 21 21 20 19 17 18 17 17 17 17 17 16 16 15 15 16 18 19 20 24 25 23 21
33 31 30 28 26 26 25 24 23 22 22 22 21 23 22 22 19 20 18 17 16 16 16 17 18 20 20 20 25 28 27 28
38 33 32 31 29 29 28 25 24 23 24 23 22 24 25 22 23 22 20 18 16 16 16 17 19 21 22 24 26 29 31 35
42 38 38 36 32 31 29 27 26 26 26 25 25 26 27 27 27 26 24 19 17 17 18 21 21 22 23 24 27 30 35 39
41 39 38 37 34 33 32 31 29 29 28 28 28 27 28 30 30 29 27 24 20 19 19 20 21 21 24 25 28 32 38 41
44 40 38 39 37 35 34 33 35 34 33 33 32 31 32 33 32 30 30 29 27 22 21 22 23 23 23 25 29 31 35 40
49 49 49 47 45 43 41 41 43 41 40 37 37 36 38 37 36 35 34 33 32 25 24 25 26 25 25 25 29 33 34 39
49 50 49 47 46 44 45 47 46 45 42 41 41 40 41 41 39 38 37 35 32 28 27 28 28 28 27 29 31 30 35 37
52 52 52 51 50 52 52 52 51 51 49 48 49 50 50 46 43 42 39 36 33 30 30 31 31 30 30 31 32 32 33 36
56 56 57 58 59 61 61 61 61 59 58 56 55 52 49 46 43 40 41 37 36 35 33 35 34 33 33 34 34 34 34 35
62 65 66 64 63 61 63 66 61 60 58 56 53 50 49 47 44 42 42 40 40 40 38 38 38 37 37 37 35 36 35 36
68 68 67 68 67 66 68 68 68 64 59 56 56 51 48 49 44 40 42 43 44 44 44 42 42 42 42 40 38 37 36 36
68 71 70 69 66 69 71 75 74 64 57 59 55 50 46 44 42 43 46 46 46 46 46 46 46 46 46 44 41 38 37 37
76 75 76 75 73 78 84 74 62 59 59 56 52 50 49 47 42 45 48 48 49 49 49 48 48 49 49 47 44 41 39 35
82 81 82 81 87 87 72 66 64 63 58 52 51 51 50 48 49 49 50 49 49 50 51 52 52 53 53 50 49 46 44 43
79 79 81 91 91 79 73 71 67 63 58 55 54 53 51 50 49 49 48 49 49 49 50 52 52 52 52 51 52 52 51 49
79 83 92 93 82 76 75 65 61 57 56 54 52 49 50 50 51 51 51 52 53 53 55 56 58 58 56 56 54 55 54 54

GFSFLT1_prec_cthk_165.txt.gz
RH
40 39 36 33 31 29 26 26 25 23 22 21 23 22 22 20 20 19 15 17 15 15 20 20 20 21 21 20 19 19 18 17
43 41 37 35 33 31 26 26 26 25 24 24 24 22 21 21 20 17 17 16 17 20 23 21 22 21 19 20 19 19 18 19
44 40 38 34 32 31 30 30 28 27 26 24 21 22 23 22 22 20 21 17 18 21 20 22 23 19 19 23 20 22 23 24
46 41 40 36 33 32 31 31 29 28 26 28 27 25 24 24 24 23 23 24 23 23 24 22 20 20 20 21 24 26 26 26
44 45 42 41 36 33 31 30 32 31 29 30 26 28 27 27 26 25 25 25 25 26 27 26 22 21 20 20 23 26 28 29
41 44 42 42 41 39 38 37 36 33 31 29 30 31 32 31 30 29 28 28 28 28 30 29 27 23 23 24 23 26 30 31
44 45 42 41 40 39 39 37 37 35 33 33 32 32 35 37 36 35 33 32 32 32 33 31 29 27 25 26 27 26 28 32
45 47 45 45 46 43 41 40 40 40 39 40 40 42 43 41 40 39 38 37 36 36 37 35 29 27 27 27 29 31 31 30
46 44 44 45 44 45 45 45 44 44 46 46 47 48 47 46 45 45 45 44 43 43 42 40 34 31 30 29 31 33 31 30
52 52 51 51 50 49 48 47 46 48 51 51 51 51 51 52 53 53 52 49 46 45 44 42 39 35 35 34 35 35 34 32
53 52 53 54 52 51 51 51 52 54 55 57 59 61 61 59 55 52 49 47 46 45 45 44 40 39 39 39 40 39 37 34
58 57 60 58 56 55 55 55 57 58 60 63 64 63 59 56 53 50 48 46 45 45 45 43 41 41 44 44 44 43 41 37
61 63 65 64 60 59 60 61 61 62 66 68 68 64 57 54 51 46 43 45 46 46 45 46 45 45 46 47 47 46 44 42
66 68 70 69 66 64 63 62 64 70 71 70 63 58 53 51 49 48 46 43 44 46 46 47 47 46 47 48 48 49 48 45
65 71 69 68 67 68 69 72 76 76 72 64 64 61 56 52 50 47 48 48 48 49 50 50 49 49 50 49 49 49 48 46
67 71 68 69 70 72 77 80 81 76 70 68 65 59 57 55 57 58 56 54 56 53 49 49 48 49 50 49 49 48 48 46
66 76 74 76 82 85 85 83 72 70 72 67 62 58 55 52 52 53 53 53 50 49 49 51 50 51 49 48 48 48 47 49
73 78 80 83 83 85 82 72 71 67 62 61 60 57 52 51 50 48 48 47 48 50 52 53 57 57 56 53 53 55 55 53
78 83 82 85 87 81 73 73 67 65 62 58 53 50 46 43 44 44 43 43 44 45 48 50 53 57 59 60 60 62 62 61